THORAD AGENA D R/B, 4159

Orbit data source: Space-Track

THORAD AGENA D R/B, 4159 is space debris in LEO originally from a launch on Tue, 30 Sep 1969 UTC launched from the Air Force Western Test Range (AFWTR). Debris objects in space refer to the collection of defunct objects orbiting the Earth. Examples of debris include non-operational satellites, rocket bodies, and fragments generated from explosions, collisions, or faulty payload assembly.

Loading next visibility...
Identifier
4159, 1969-082AB
Orbit
LEO
Country
Flag of USUS
Related business
Manufacturer
LMSC
Mission
Spacecraft
Bus & Motor
AGENA D, Unknown motor
Mass
600 kg wet, 600 kg dry
Launch date (UTC)
1969-09-30 (57 years ago)
Launch vehicle
Unknown
Launch site
Air Force Western Test Range (AFWTR)
Object type
Payload
Rocket body
Debris
Shape & HBR
Unknown
Radar Cross Section
Large (>1 m²)

Expand to show TLE details & history
Last TLE update: 2 days ago

TLE from 2 days ago
0 THORAD AGENA D R/B
1  4159U 69082AB  26171.40941955  .00000004  00000-0  55996-4 0  9990
2  4159  69.9611 221.1346 0116791 314.2206  44.9340 13.72911648839023
Epoch: 2026-06-20T09:49Z
TLE epoch observation values (Epoch: 2026-06-20T09:49:33.849Z)
Latitude
Longitude
165.11911°
Altitude
931.009 km
Speed
7.417 km/s
True Right ascension
14h 44m 32s
True Declination
0° 00' 00"
Sunlit
Object was in full shadow at epoch
Visualization orbit readout
Latitude
Unknown
Longitude
Unknown
Altitude
Unknown
Speed
Unknown
Apparent Right ascension
Unknown
Apparent Declination
Unknown
Sunlit
N/A
Visualization observer readout
Local Sidereal Time
07:03:54
Azimuth
Unknown
Elevation
Unknown
Doppler factor
Unknown
Orbital elements
Apogee altitude
1,073.225 km
Perigee altitude
901.184 km
Semi-major axis
7,365.342 km
Eccentricity
0.01168
Inclination
69.9611°
RAAN
221.1346°
Arg. of periapsis
314.2206°
True anomaly
45.88907°
Mean anomaly
44.934°
Eccentric anomaly
45.41055°
Mean motion
3.43363 °/min
Orbital period
104.85 mins
BSTAR
0.000055996

Documentation

Showing up to 5 results
|